When you browse on this site, cookies collect data to enhance your experience and personalize the content and advertising you see.
Visit our Privacy Policy to learn more. By continuing to use the site, you agree to this use of cookies and data.
  • In Romania
  • List of Countries
  • For 7 days
  • Water Temperature
  • Satellite Maps
  • Weather Map
  • Weather Widgets
  • user-avatar
    Login

    Hourly Weather Qui Nhon

    Today, 18 December, Tuesday

    Time Temperature Precipitation Wind Pressure Humidity
    00:00 +23°C° 0.2 mm 6 mps 761 mmHg 96%
    01:00 +23°C° 0 mm 6 mps 760 mmHg 96%
    02:00 +23°C° 0.2 mm 6 mps 760 mmHg 96%
    03:00 +23°C° 0.2 mm 6 mps 760 mmHg 96%
    04:00 +23°C° 0.2 mm 6 mps 760 mmHg 96%
    05:00 +23°C° 0.2 mm 6 mps 760 mmHg 96%
    06:00 +23°C° 0.2 mm 6 mps 761 mmHg 95%
    07:00 +23°C° 0 mm 6 mps 761 mmHg 93%
    08:00 +24°C° 0.1 mm 6 mps 761 mmHg 87%
    09:00 +27°C° 0.1 mm 6 mps 761 mmHg 80%
    10:00 +28°C° 0.1 mm 7 mps 761 mmHg 74%
    11:00 +29°C° 0 mm 7 mps 760 mmHg 71%
    12:00 +29°C° 0 mm 7 mps 760 mmHg 68%
    13:00 +30°C° 0 mm 7 mps 759 mmHg 65%
    14:00 +29°C° 0 mm 7 mps 759 mmHg 68%
    15:00 +28°C° 0 mm 7 mps 759 mmHg 71%
    16:00 +28°C° 0 mm 7 mps 759 mmHg 75%
    17:00 +27°C° 0.1 mm 7 mps 759 mmHg 80%
    18:00 +24°C° 0.1 mm 6 mps 759 mmHg 84%
    19:00 +23°C° 0.1 mm 6 mps 760 mmHg 89%
    20:00 +23°C° 0.1 mm 6 mps 760 mmHg 91%
    21:00 +23°C° 0.1 mm 5 mps 760 mmHg 92%
    22:00 +22°C° 0.1 mm 5 mps 760 mmHg 93%
    23:00 +22°C° 0.2 mm 5 mps 760 mmHg 93%

    Tomorrow, 19 December, Wednesday

    Time Temperature Precipitation Wind Pressure Humidity
    00:00 +23°C° 0.2 mm 5 mps 760 mmHg 93%
    01:00 +23°C° 0.2 mm 4 mps 760 mmHg 93%
    02:00 +23°C° 0.4 mm 4 mps 760 mmHg 93%
    03:00 +23°C° 0.4 mm 4 mps 760 mmHg 93%
    04:00 +23°C° 0.4 mm 4 mps 760 mmHg 93%
    05:00 +23°C° 0.3 mm 4 mps 760 mmHg 93%
    06:00 +23°C° 0.3 mm 4 mps 760 mmHg 93%
    07:00 +23°C° 0.3 mm 4 mps 760 mmHg 93%
    08:00 +26°C° 0.4 mm 4 mps 760 mmHg 88%
    09:00 +27°C° 0.4 mm 5 mps 761 mmHg 82%
    10:00 +29°C° 0.4 mm 5 mps 761 mmHg 76%
    11:00 +29°C° 0.3 mm 5 mps 760 mmHg 75%
    12:00 +30°C° 0.3 mm 5 mps 759 mmHg 73%
    13:00 +30°C° 0.3 mm 5 mps 759 mmHg 72%
    14:00 +30°C° 0.1 mm 4 mps 758 mmHg 74%
    15:00 +29°C° 0.1 mm 4 mps 758 mmHg 77%
    16:00 +29°C° 0.1 mm 4 mps 758 mmHg 79%
    17:00 +28°C° 0.1 mm 3 mps 758 mmHg 85%
    18:00 +26°C° 0.1 mm 3 mps 759 mmHg 90%
    19:00 +25°C° 0.1 mm 3 mps 759 mmHg 95%
    20:00 +25°C° 0.1 mm 2 mps 759 mmHg 96%
    21:00 +25°C° 0.1 mm 2 mps 760 mmHg 96%
    22:00 +24°C° 0.1 mm 2 mps 760 mmHg 97%
    23:00 +24°C° 0.1 mm 2 mps 760 mmHg 96%

    Day after tomorrow, 20 December, Thursday

    Time Temperature Precipitation Wind Pressure Humidity
    00:00 +24°C° 0.1 mm 2 mps 759 mmHg 96%
    01:00 +24°C° 0.1 mm 2 mps 759 mmHg 96%
    02:00 +24°C° 0.1 mm 2 mps 759 mmHg 95%
    03:00 +24°C° 0.1 mm 2 mps 759 mmHg 95%
    04:00 +24°C° 0.1 mm 2 mps 758 mmHg 95%
    05:00 +24°C° 0 mm 2 mps 759 mmHg 94%
    06:00 +24°C° 0 mm 2 mps 759 mmHg 94%
    07:00 +25°C° 0 mm 2 mps 759 mmHg 93%
    08:00 +27°C° 0 mm 2 mps 760 mmHg 86%
    09:00 +28°C° 0 mm 3 mps 760 mmHg 78%
    10:00 +30°C° 0 mm 3 mps 760 mmHg 70%
    11:00 +31°C° 0 mm 3 mps 759 mmHg 69%
    12:00 +31°C° 0 mm 3 mps 758 mmHg 68%
    13:00 +31°C° 0 mm 3 mps 757 mmHg 67%
    14:00 +31°C° 0 mm 3 mps 756 mmHg 70%
    15:00 +31°C° 0 mm 3 mps 756 mmHg 73%
    16:00 +30°C° 0 mm 3 mps 755 mmHg 76%
    17:00 +28°C° 0 mm 2 mps 756 mmHg 82%
    18:00 +27°C° 0 mm 2 mps 757 mmHg 89%
    19:00 +25°C° 0 mm 2 mps 757 mmHg 96%
    20:00 +25°C° 0 mm 2 mps 758 mmHg 96%
    21:00 +25°C° 0 mm 1 mps 758 mmHg 96%
    22:00 +25°C° 0 mm 1 mps 758 mmHg 97%
    23:00 +25°C° 0.1 mm 1 mps 758 mmHg 97%

    21 December, Friday

    Time Temperature Precipitation Wind Pressure Humidity
    00:00 +24°C° 0.1 mm 1 mps 758 mmHg 97%
    01:00 +24°C° 0.1 mm 1 mps 758 mmHg 97%
    02:00 +24°C° 0 mm 1 mps 757 mmHg 97%
    03:00 +24°C° 0 mm 2 mps 757 mmHg 97%
    04:00 +23°C° 0 mm 2 mps 757 mmHg 97%
    05:00 +24°C° 0 mm 2 mps 757 mmHg 96%
    06:00 +24°C° 0 mm 2 mps 757 mmHg 95%
    07:00 +24°C° 0 mm 2 mps 758 mmHg 94%
    08:00 +26°C° 0 mm 2 mps 758 mmHg 85%
    09:00 +28°C° 0 mm 2 mps 758 mmHg 76%
    10:00 +30°C° 0 mm 2 mps 758 mmHg 67%
    11:00 +31°C° 0 mm 3 mps 758 mmHg 66%
    12:00 +33°C° 0 mm 3 mps 757 mmHg 64%
    13:00 +33°C° 0 mm 3 mps 756 mmHg 62%
    14:00 +31°C° 0 mm 3 mps 755 mmHg 67%
    15:00 +32°C° 0 mm 4 mps 755 mmHg 72%
    16:00 +30°C° 0 mm 4 mps 755 mmHg 77%
    17:00 +28°C° 0 mm 4 mps 756 mmHg 83%
    18:00 +27°C° 0 mm 4 mps 756 mmHg 89%
    19:00 +26°C° 0 mm 4 mps 757 mmHg 94%
    20:00 +25°C° 0 mm 4 mps 757 mmHg 95%
    21:00 +25°C° 0 mm 4 mps 758 mmHg 95%
    22:00 +25°C° 0 mm 4 mps 758 mmHg 96%
    23:00 +23°C° 0 mm 4 mps 758 mmHg 96%

    22 December, Saturday

    Time Temperature Precipitation Wind Pressure Humidity
    00:00 +23°C° 0 mm 4 mps 757 mmHg 96%
    01:00 +24°C° 0 mm 3 mps 757 mmHg 97%
    02:00 +23°C° 0 mm 4 mps 757 mmHg 96%
    03:00 +22°C° 0 mm 4 mps 756 mmHg 96%
    04:00 +22°C° 0 mm 4 mps 756 mmHg 96%
    05:00 +22°C° 0 mm 4 mps 757 mmHg 94%
    06:00 +22°C° 0 mm 4 mps 757 mmHg 93%
    07:00 +22°C° 0 mm 4 mps 757 mmHg 92%
    08:00 +25°C° 0 mm 4 mps 757 mmHg 86%
    09:00 +26°C° 0 mm 5 mps 758 mmHg 79%
    10:00 +28°C° 0 mm 5 mps 758 mmHg 73%
    11:00 +28°C° 0 mm 5 mps 757 mmHg 72%
    12:00 +29°C° 0 mm 6 mps 757 mmHg 71%
    13:00 +29°C° 0 mm 6 mps 756 mmHg 70%
    14:00 +29°C° 0.1 mm 6 mps 756 mmHg 72%
    15:00 +29°C° 0.1 mm 6 mps 755 mmHg 75%
    16:00 +28°C° 0.1 mm 6 mps 755 mmHg 77%
    17:00 +27°C° 0.3 mm 6 mps 755 mmHg 80%
    18:00 +27°C° 0.3 mm 6 mps 756 mmHg 82%
    19:00 +26°C° 0.3 mm 6 mps 756 mmHg 85%
    20:00 +26°C° 0.4 mm 6 mps 756 mmHg 86%
    21:00 +24°C° 0.4 mm 6 mps 757 mmHg 87%
    22:00 +24°C° 0.4 mm 6 mps 757 mmHg 88%
    23:00 +24°C° 0.7 mm 6 mps 756 mmHg 90%

    23 December, Sunday

    Time Temperature Precipitation Wind Pressure Humidity
    00:00 +24°C° 0.7 mm 6 mps 756 mmHg 91%
    01:00 +24°C° 0.7 mm 7 mps 755 mmHg 92%
    02:00 +24°C° 1.4 mm 7 mps 755 mmHg 93%
    03:00 +24°C° 1.4 mm 7 mps 755 mmHg 95%
    04:00 +24°C° 1.4 mm 7 mps 754 mmHg 96%
    05:00 +24°C° 2.7 mm 7 mps 755 mmHg 96%
    06:00 +24°C° 2.7 mm 7 mps 755 mmHg 97%
    07:00 +24°C° 2.7 mm 7 mps 755 mmHg 97%
    08:00 +24°C° 2.1 mm 7 mps 756 mmHg 96%
    09:00 +26°C° 2.1 mm 7 mps 756 mmHg 96%
    10:00 +26°C° 2.1 mm 7 mps 756 mmHg 95%
    11:00 +26°C° 1.2 mm 7 mps 756 mmHg 94%
    12:00 +26°C° 1.2 mm 7 mps 755 mmHg 94%
    13:00 +27°C° 1.2 mm 7 mps 754 mmHg 93%
    14:00 +26°C° 0.7 mm 7 mps 754 mmHg 93%
    15:00 +26°C° 0.7 mm 6 mps 754 mmHg 94%
    16:00 +26°C° 0.7 mm 6 mps 754 mmHg 94%
    17:00 +26°C° 0.2 mm 6 mps 755 mmHg 95%
    18:00 +25°C° 0.2 mm 5 mps 755 mmHg 96%
    19:00 +25°C° 0.2 mm 5 mps 755 mmHg 96%
    20:00 +25°C° 0.2 mm 5 mps 755 mmHg 96%
    21:00 +25°C° 0.2 mm 4 mps 756 mmHg 96%
    22:00 +25°C° 0.2 mm 4 mps 756 mmHg 96%
    23:00 +25°C° 0.1 mm 4 mps 755 mmHg 96%
    Show more